Weather History for KTTS - July, 2013

Change the Weather History Date:

Friday, July 5, 2013

  Actual Average Record
Temperature  
Mean Temperature 81 °F -  
Max Temperature 86 °F 85 °F 95 °F (1998)
Min Temperature 76 °F 70 °F 68 °F (2008)
Cooling Degree Days 16    
Growing Degree Days 31 (Base 50)    
Moisture  
Dew Point 75 °F    
Average Humidity 81    
Maximum Humidity 96    
Minimum Humidity 66    
Precipitation  
Precipitation 0.12 in - - ()
Sea Level Pressure  
Sea Level Pressure 30.15 in    
Wind  
Wind Speed 8 mph (SE)    
Max Wind Speed 18 mph    
Max Gust Speed 25 mph    
Visibility 9 miles    
Events Rain    
Averages and records for this station are not official NWS values.
T = Trace of Precipitation, MM = Missing Value Source: NWS Daily Summary

Daily Weather History Graph

Daily Weather History Graph

Search for Another Location

Airport or City:

Trip Planner

Search our weather history database for the weather conditions in past years. The results will help you decide how hot, cold, wet, or windy it might be!

Date:

Astronomy

Jul. 05, 2013 Rise Set
Actual Time 6:30 AM EDT 8:24 PM EDT
Civil Twilight 6:03 AM EDT 8:51 PM EDT
Nautical Twilight 5:31 AM EDT 9:23 PM EDT
Astronomical Twilight 4:56 AM EDT 9:57 PM EDT
Moon 4:24 AM EDT (7/5) 6:22 PM EDT (7/5)
Length of Visible Light 14h 47m
Length of Day
13h 54m
Waning Crescent, 6% of the Moon is Illuminated
Jul 5
Waning Crescent
Jul 8
New
Jul 15
First Quarter
Jul 22
Full
Jul 29
Last Quarter

Hourly Weather History & Observations

Time (EDT) Temp. Heat Index Dew Point Humidity Pressure Visibility Wind Dir Wind Speed Gust Speed Precip Events Conditions
12:56 AM 77.0 °F - 75.2 °F 94% 30.17 in 10.0 mi SE 5.8 mph - N/A   Clear
1:58 AM 76.8 °F - 74.7 °F 93% 30.15 in 10.0 mi ESE 2.3 mph - N/A   Clear
2:58 AM 77.2 °F - 75.0 °F 93% 30.14 in 7.0 mi ESE 3.5 mph - N/A   Clear
3:58 AM 77.0 °F - 74.1 °F 91% 30.13 in 10.0 mi SE 3.5 mph - N/A   Clear
4:58 AM 76.3 °F - 73.8 °F 92% 30.12 in 10.0 mi ESE 4.6 mph - N/A   Clear
5:58 AM 76.1 °F - 74.5 °F 95% 30.12 in 10.0 mi ESE 8.1 mph - N/A   Clear
6:58 AM 76.8 °F - 75.6 °F 96% 30.14 in 10.0 mi ESE 4.6 mph - N/A   Clear
7:58 AM 80.2 °F 85.8 °F 76.1 °F 87% 30.16 in 10.0 mi SE 9.2 mph - N/A   Partly Cloudy
8:52 AM 82.4 °F 89.5 °F 75.2 °F 79% 30.16 in 10.0 mi SE 8.1 mph - N/A Rain Light Rain
8:58 AM 81.5 °F 88.3 °F 75.9 °F 83% 30.17 in 10.0 mi ESE 8.1 mph - 0.00 in Rain Light Rain
9:02 AM 80.6 °F 87.1 °F 77.0 °F 89% 30.16 in 10.0 mi ESE 8.1 mph - N/A   Mostly Cloudy
9:16 AM 80.6 °F 87.1 °F 77.0 °F 89% 30.17 in 10.0 mi ESE 9.2 mph - N/A   Light Drizzle
9:25 AM 82.4 °F 90.9 °F 77.0 °F 84% 30.16 in 10.0 mi SE 11.5 mph - N/A   Mostly Cloudy
9:36 AM 82.4 °F 89.5 °F 75.2 °F 79% 30.17 in 9.0 mi ESE 13.8 mph - N/A Rain Light Rain
9:39 AM 80.6 °F 86.2 °F 75.2 °F 84% 30.17 in 3.0 mi SSE 12.7 mph - N/A Rain Heavy Rain
9:44 AM 78.8 °F - 75.2 °F 89% 30.17 in 1.2 mi Variable 1.2 mph - N/A Rain Rain
9:49 AM 80.6 °F 87.1 °F 77.0 °F 89% 30.17 in 1.8 mi SE 3.5 mph - N/A Rain Light Rain
9:51 AM 80.6 °F 87.1 °F 77.0 °F 89% 30.17 in 3.0 mi SE 3.5 mph - N/A   Mostly Cloudy
9:58 AM 81.5 °F 90.2 °F 78.8 °F 91% 30.18 in 10.0 mi SE 9.2 mph - 0.12 in   Mostly Cloudy
10:18 AM 82.4 °F 90.9 °F 77.0 °F 84% 30.16 in 10.0 mi SE 10.4 mph 16.1 mph N/A   Mostly Cloudy
10:23 AM 82.4 °F 90.9 °F 77.0 °F 84% 30.16 in 10.0 mi SE 11.5 mph - N/A   Scattered Clouds
10:58 AM 84.2 °F 93.4 °F 76.3 °F 77% 30.19 in 10.0 mi SE 12.7 mph 21.9 mph N/A   Scattered Clouds
11:08 AM 84.2 °F 92.3 °F 75.2 °F 74% 30.18 in 10.0 mi ESE 12.7 mph - N/A   Mostly Cloudy
11:18 AM 86.0 °F 95.1 °F 75.2 °F 70% 30.17 in 10.0 mi ESE 18.4 mph 21.9 mph N/A   Scattered Clouds
11:58 AM 85.5 °F 94.2 °F 75.2 °F 71% 30.18 in 10.0 mi ESE 16.1 mph 25.3 mph N/A   Clear
12:58 PM 85.8 °F 94.6 °F 75.0 °F 70% 30.17 in 10.0 mi ESE 15.0 mph 24.2 mph N/A   Scattered Clouds
1:56 PM 86.0 °F 95.1 °F 75.2 °F 70% 30.16 in 10.0 mi SE 15.0 mph 24.2 mph N/A   Mostly Cloudy
2:58 PM 86.2 °F 94.2 °F 73.9 °F 67% 30.16 in 10.0 mi SE 16.1 mph 24.2 mph N/A   Scattered Clouds
3:58 PM 86.4 °F 94.6 °F 74.1 °F 67% 30.14 in 10.0 mi SE 16.1 mph 21.9 mph N/A   Scattered Clouds
4:23 PM 86.0 °F 93.4 °F 73.4 °F 66% 30.11 in 10.0 mi ESE 15.0 mph 21.9 mph N/A   Mostly Cloudy
4:55 PM 86.0 °F 93.4 °F 73.4 °F 66% 30.11 in 10.0 mi ESE 17.3 mph 24.2 mph N/A   Scattered Clouds
4:58 PM 85.6 °F 93.4 °F 74.1 °F 68% 30.12 in 10.0 mi ESE 16.1 mph 25.3 mph N/A   Scattered Clouds
5:58 PM 85.1 °F 92.6 °F 73.8 °F 69% 30.11 in 10.0 mi ESE 13.8 mph 24.2 mph N/A   Partly Cloudy
6:58 PM 83.7 °F 90.1 °F 73.2 °F 71% 30.12 in 10.0 mi SE 11.5 mph 20.7 mph N/A   Clear
7:58 PM 81.1 °F 85.8 °F 72.5 °F 75% 30.13 in 10.0 mi SE 9.2 mph - N/A   Clear
8:58 PM 79.5 °F - 73.0 °F 80% 30.14 in 10.0 mi SE 6.9 mph - N/A   Clear
9:58 PM 79.0 °F - 73.0 °F 82% 30.15 in 10.0 mi SE 8.1 mph - N/A   Clear
10:58 PM 79.2 °F - 73.2 °F 82% 30.17 in 10.0 mi SE 8.1 mph - N/A   Clear
11:58 PM 78.8 °F - 73.4 °F 83% 30.17 in 10.0 mi SE 5.8 mph - N/A   Clear